User: anonymous   Login
Location: Ar Ranvel
(48.3000°N, 4.8833°W)
Time: 16:42:11
(UTC+00:00)
Language:

Cosmos 2360 Rocket - Orbit

View from above orbital plane
View from above orbital plane
View from above satellite
View from above satellite

Ground track
Ground track

The orbit data is extracted from the following two-line orbital elements,

1 25407U 98045B   21269.00036553  .00000256  00000-0  15428-3 0  9992
2 25407  71.0142 359.1742 0008468 329.1176  30.9448 14.15843038197249
Epoch (UTC): 26 September 2021 00:00:31
Eccentricity: 0.0008468
inclination: 71.0142°
perigee height: 833 km
apogee height: 845 km
right ascension of ascending node: 359.1742°
argument of perigee: 329.1176°
revolutions per day: 14.15843038
mean anomaly at epoch: 30.9448°
orbit number at epoch: 19724

The dashed part of the orbit path shows where the satellite is in the earth's shadow,  

DLR